| time (UTC) | temp C | wind direction | speed KPH | gust KPH | rain 1hr cm | rain 24hr cm | rain mn cm | humidity % | barometer mb |
| 20260504035509 | 15 | 246 | 14.5 | 20.9 | 0.00 | 0.00 | 0.00 | 47 | 996.5 |
| 20260504034630 | 14 | 249 | 12.9 | 20.9 | 0.00 | 0.00 | 0.00 | 48 | 996.6 |
| 20260504033709 | 14 | 248 | 12.9 | 19.3 | 0.00 | 0.00 | 0.00 | 48 | 996.7 |
| 20260504032809 | 15 | 248 | 12.9 | 19.3 | 0.00 | 0.00 | 0.00 | 48 | 996.7 |
| 20260504031909 | 15 | 246 | 12.9 | 16.1 | 0.00 | 0.00 | 0.00 | 48 | 996.8 |
| 20260504031009 | 15 | 244 | 12.9 | 17.7 | 0.00 | 0.00 | 0.00 | 47 | 997.0 |
| 20260504030109 | 15 | 245 | 12.9 | 17.7 | 0.00 | 0.00 | 0.00 | 46 | 997.0 |
| 20260504025509 | 16 | 245 | 12.9 | 22.5 | 0.00 | 0.00 | 0.00 | 45 | 997.2 |
| 20260504024609 | 16 | 242 | 14.5 | 22.5 | 0.00 | 0.00 | 0.00 | 44 | 997.3 |
| 20260504023708 | 17 | 241 | 14.5 | 22.5 | 0.00 | 0.00 | 0.00 | 43 | 997.5 |
| 20260504022830 | 17 | 242 | 14.5 | 22.5 | 0.00 | 0.00 | 0.00 | 41 | 997.6 |
| 20260504021909 | 17 | 253 | 17.7 | 27.4 | 0.00 | 0.00 | 0.00 | 40 | 997.6 |
| 20260504021008 | 18 | 253 | 19.3 | 32.2 | 0.00 | 0.00 | 0.00 | 39 | 997.7 |
| 20260504020108 | 18 | 253 | 19.3 | 32.2 | 0.00 | 0.00 | 0.00 | 38 | 997.8 |
| 20260504015508 | 18 | 251 | 20.9 | 32.2 | 0.00 | 0.00 | 0.00 | 37 | 997.9 |
| 20260504014608 | 19 | 266 | 22.5 | 32.2 | 0.00 | 0.00 | 0.00 | 36 | 997.9 |
| 20260504013709 | 20 | 358 | 20.9 | 33.8 | 0.00 | 0.00 | 0.00 | 36 | 998.0 |
| 20260504012808 | 20 | 1 | 22.5 | 32.2 | 0.00 | 0.00 | 0.00 | 35 | 998.0 |
| 20260504011908 | 20 | 1 | 22.5 | 35.4 | 0.00 | 0.00 | 0.00 | 34 | 998.1 |
| 20260504011009 | 20 | 1 | 19.3 | 35.4 | 0.00 | 0.00 | 0.00 | 35 | 998.2 |
| 20260504010108 | 20 | 1 | 19.3 | 29.0 | 0.00 | 0.00 | 0.00 | 34 | 998.5 |
| 20260504005508 | 20 | 1 | 20.9 | 37.0 | 0.00 | 0.00 | 0.00 | 34 | 998.6 |
| 20260504004608 | 21 | 1 | 22.5 | 37.0 | 0.00 | 0.00 | 0.00 | 33 | 998.8 |
| 20260504003708 | 21 | 1 | 19.3 | 30.6 | 0.00 | 0.00 | 0.00 | 33 | 998.9 |
| 20260504002808 | 21 | 1 | 20.9 | 37.0 | 0.00 | 0.00 | 0.00 | 31 | 999.3 |
| 20260504001908 | 22 | 1 | 25.7 | 40.2 | 0.00 | 0.00 | 0.00 | 30 | 999.4 |
| 20260504001008 | 22 | 1 | 22.5 | 38.6 | 0.00 | 0.00 | 0.00 | 30 | 999.6 |
| 20260504000108 | 22 | 1 | 24.1 | 38.6 | 0.00 | 0.00 | 0.00 | 30 | 999.7 |
| 20260503235508 | 21 | 1 | 22.5 | 38.6 | 0.00 | 0.00 | 0.00 | 30 | 999.9 |
| 20260503234608 | 21 | 1 | 22.5 | 38.6 | 0.00 | 0.00 | 0.00 | 30 | 1000.0 |
| 20260503233708 | 21 | 1 | 24.1 | 38.6 | 0.00 | 0.00 | 0.00 | 30 | 1000.3 |
| 20260503232829 | 21 | 1 | 25.7 | 43.5 | 0.00 | 0.00 | 0.00 | 31 | 1000.4 |
| 20260503231929 | 21 | 1 | 27.4 | 43.5 | 0.00 | 0.00 | 0.00 | 30 | 1000.7 |
| 20260503231008 | 21 | 1 | 27.4 | 45.1 | 0.00 | 0.00 | 0.00 | 30 | 1000.8 |
| 20260503230108 | 21 | 1 | 30.6 | 45.1 | 0.00 | 0.00 | 0.00 | 28 | 1000.7 |
| 20260503225508 | 22 | 1 | 29.0 | 45.1 | 0.00 | 0.00 | 0.00 | 28 | 1000.9 |
| 20260503224608 | 22 | 1 | 25.7 | 48.3 | 0.00 | 0.00 | 0.00 | 27 | 1001.0 |
| 20260503223708 | 22 | 1 | 27.4 | 48.3 | 0.00 | 0.00 | 0.00 | 30 | 1001.2 |
| 20260503222808 | 23 | 1 | 30.6 | 46.7 | 0.00 | 0.00 | 0.00 | 28 | 1001.4 |
| 20260503221908 | 23 | 1 | 30.6 | 46.7 | 0.00 | 0.00 | 0.00 | 26 | 1001.4 |
| 20260503221008 | 22 | 1 | 29.0 | 46.7 | 0.00 | 0.00 | 0.00 | 28 | 1001.6 |
| 20260503220108 | 22 | 1 | 27.4 | 53.1 | 0.00 | 0.00 | 0.00 | 30 | 1001.7 |
| 20260503215508 | 22 | 1 | 27.4 | 53.1 | 0.00 | 0.00 | 0.00 | 30 | 1001.7 |
| 20260503214608 | 22 | 1 | 32.2 | 53.1 | 0.00 | 0.00 | 0.00 | 28 | 1002.0 |
| 20260503213708 | 22 | 1 | 27.4 | 41.8 | 0.00 | 0.00 | 0.00 | 30 | 1002.1 |
| 20260503212829 | 22 | 1 | 25.7 | 49.9 | 0.00 | 0.00 | 0.00 | 32 | 1002.4 |
| 20260503211908 | 22 | 1 | 29.0 | 49.9 | 0.00 | 0.00 | 0.00 | 30 | 1002.7 |
| 20260503211008 | 22 | 1 | 30.6 | 49.9 | 0.00 | 0.00 | 0.00 | 30 | 1002.8 |
| 20260503210108 | 22 | 1 | 30.6 | 49.9 | 0.00 | 0.00 | 0.00 | 29 | 1003.1 |
| 20260503205529 | 22 | 1 | 29.0 | 45.1 | 0.00 | 0.00 | 0.00 | 29 | 1003.3 |
| 20260503204608 | 22 | 1 | 27.4 | 48.3 | 0.00 | 0.00 | 0.00 | 30 | 1003.7 |
| 20260503203708 | 22 | 1 | 30.6 | 48.3 | 0.00 | 0.00 | 0.00 | 29 | 1003.8 |
| 20260503202808 | 22 | 1 | 24.1 | 45.1 | 0.00 | 0.00 | 0.00 | 30 | 1003.9 |
| 20260503201908 | 21 | 1 | 30.6 | 49.9 | 0.00 | 0.00 | 0.00 | 29 | 1004.3 |
| 20260503201008 | 22 | 1 | 30.6 | 49.9 | 0.00 | 0.00 | 0.00 | 29 | 1004.5 |
| 20260503200108 | 21 | 1 | 27.4 | 45.1 | 0.00 | 0.00 | 0.00 | 31 | 1004.7 |
| 20260503195508 | 21 | 1 | 30.6 | 46.7 | 0.00 | 0.00 | 0.00 | 30 | 1004.8 |
| 20260503194608 | 21 | 1 | 25.7 | 40.2 | 0.00 | 0.00 | 0.00 | 32 | 1004.9 |
| 20260503193708 | 21 | 1 | 24.1 | 43.5 | 0.00 | 0.00 | 0.00 | 31 | 1005.2 |
| 20260503192808 | 21 | 1 | 27.4 | 45.1 | 0.00 | 0.00 | 0.00 | 32 | 1005.3 |
| 20260503191908 | 21 | 1 | 22.5 | 40.2 | 0.00 | 0.00 | 0.00 | 33 | 1005.5 |
| 20260503191008 | 20 | 1 | 29.0 | 40.2 | 0.00 | 0.00 | 0.00 | 31 | 1005.8 |
| 20260503190108 | 20 | 1 | 25.7 | 46.7 | 0.00 | 0.00 | 0.00 | 32 | 1006.0 |
| 20260503185508 | 20 | 1 | 27.4 | 41.8 | 0.00 | 0.00 | 0.00 | 32 | 1006.1 |
| 20260503184608 | 20 | 1 | 24.1 | 41.8 | 0.00 | 0.00 | 0.00 | 33 | 1006.4 |
| 20260503183708 | 20 | 1 | 22.5 | 41.8 | 0.00 | 0.00 | 0.00 | 34 | 1006.7 |
| 20260503182808 | 20 | 1 | 24.1 | 41.8 | 0.00 | 0.00 | 0.00 | 33 | 1006.9 |
| 20260503181908 | 20 | 1 | 20.9 | 41.8 | 0.00 | 0.00 | 0.00 | 35 | 1007.2 |
| 20260503181008 | 19 | 1 | 25.7 | 43.5 | 0.00 | 0.00 | 0.00 | 35 | 1007.5 |
| 20260503180107 | 19 | 1 | 24.1 | 43.5 | 0.00 | 0.00 | 0.00 | 34 | 1007.6 |
| 20260503175508 | 19 | 1 | 22.5 | 41.8 | 0.00 | 0.00 | 0.00 | 36 | 1007.9 |
| 20260503174607 | 18 | 1 | 22.5 | 37.0 | 0.00 | 0.00 | 0.00 | 34 | 1008.2 |
| 20260503173707 | 18 | 1 | 22.5 | 41.8 | 0.00 | 0.00 | 0.00 | 34 | 1008.3 |
| 20260503172829 | 18 | 1 | 19.3 | 30.6 | 0.00 | 0.00 | 0.00 | 39 | 1008.6 |
| 20260503171907 | 18 | 1 | 20.9 | 33.8 | 0.00 | 0.00 | 0.00 | 38 | 1008.8 |
| 20260503171007 | 18 | 267 | 17.7 | 33.8 | 0.00 | 0.00 | 0.00 | 38 | 1009.1 |
| 20260503170107 | 18 | 253 | 17.7 | 33.8 | 0.00 | 0.00 | 0.00 | 37 | 1009.1 |
| 20260503160107 | 16 | 221 | 16.1 | 32.2 | 0.00 | 0.00 | 0.00 | 41 | 1010.0 |
| 20260503150128 | 12 | 268 | 4.8 | 9.7 | 0.00 | 0.00 | 0.00 | 55 | 1010.7 |
| 20260503140107 | 8 | 268 | 4.8 | 9.7 | 0.00 | 0.00 | 0.00 | 61 | 1011.4 |
| 20260503131007 | 5 | 268 | 4.8 | 9.7 | 0.00 | 0.00 | 0.00 | 68 | 1011.6 |
| 20260503130107 | 3 | 268 | 4.8 | 9.7 | 0.00 | 0.00 | 0.00 | 68 | 1011.5 |
| 20260503120107 | 1 | 268 | 4.8 | 9.7 | 0.00 | 0.00 | 0.00 | 72 | 1011.5 |
| 20260503110107 | 2 | 268 | 4.8 | 9.7 | 0.00 | 0.00 | 0.00 | 69 | 1011.6 |
| 20260503100107 | 2 | 268 | 4.8 | 9.7 | 0.00 | 0.00 | 0.00 | 70 | 1011.9 |
| 20260503090107 | 3 | 268 | 4.8 | 9.7 | 0.00 | 0.00 | 0.00 | 69 | 1011.7 |
| 20260503081006 | 5 | 298 | 4.8 | 9.7 | 0.00 | 0.00 | 0.00 | 61 | 1011.6 |
| 20260503080106 | 6 | 315 | 6.4 | 11.3 | 0.00 | 0.00 | 0.00 | 60 | 1011.5 |
| 20260503072806 | 6 | 337 | 4.8 | 8.0 | 0.00 | 0.00 | 0.00 | 61 | 1011.7 |
| 20260503071906 | 6 | 318 | 4.8 | 9.7 | 0.00 | 0.00 | 0.00 | 61 | 1011.6 |
| 20260503071027 | 6 | 317 | 4.8 | 12.9 | 0.00 | 0.00 | 0.00 | 61 | 1011.6 |
| 20260503070127 | 7 | 327 | 6.4 | 14.5 | 0.00 | 0.00 | 0.00 | 60 | 1011.5 |
| 20260503060106 | 8 | 360 | 17.7 | 24.1 | 0.00 | 0.00 | 0.00 | 60 | 1011.3 |
| 20260503054606 | 9 | 359 | 17.7 | 27.4 | 0.00 | 0.00 | 0.00 | 60 | 1011.2 |
| 20260503053706 | 10 | 358 | 17.7 | 27.4 | 0.00 | 0.00 | 0.00 | 61 | 1011.2 |
| 20260503052806 | 10 | 360 | 16.1 | 27.4 | 0.00 | 0.00 | 0.00 | 61 | 1011.2 |
| 20260503051906 | 10 | 353 | 12.9 | 20.9 | 0.00 | 0.00 | 0.00 | 62 | 1011.1 |
| 20260503051027 | 10 | 350 | 12.9 | 19.3 | 0.00 | 0.00 | 0.00 | 62 | 1011.0 |
| 20260503050106 | 10 | 359 | 14.5 | 19.3 | 0.00 | 0.00 | 0.00 | 62 | 1010.9 |
| 20260503045506 | 10 | 359 | 14.5 | 19.3 | 0.00 | 0.00 | 0.00 | 61 | 1010.9 |
| 20260503044606 | 11 | 358 | 16.1 | 25.7 | 0.00 | 0.00 | 0.00 | 61 | 1010.9 |
| 20260503043706 | 11 | 358 | 16.1 | 25.7 | 0.00 | 0.00 | 0.00 | 61 | 1010.9 |
| 20260503042806 | 11 | 354 | 14.5 | 22.5 | 0.00 | 0.00 | 0.00 | 61 | 1010.7 |
| 20260503041906 | 11 | 357 | 12.9 | 19.3 | 0.00 | 0.00 | 0.00 | 60 | 1010.6 |
| 20260503041006 | 11 | 5 | 9.7 | 19.3 | 0.00 | 0.00 | 0.00 | 60 | 1010.6 |
| 20260503040127 | 11 | 336 | 9.7 | 16.1 | 0.00 | 0.00 | 0.00 | 60 | 1010.6 |